Location: T�bingen+AIT
(48.5342°N, 9.0700°E)
Time: 01:50:06
(UTC+02:00)

NOSS 2 (A) - Pass Details

Date: 14 September 2017
Orbit: 273 x 1575 km, 63.3° (Epoch: 06 February)

Event Time Altitude Azimuth Distance (km) Brightness Sun altitude
Rises 20:56:48 0° 318° (NW) 1,937 9.3 -13.5°
Reaches altitude 10° 20:58:39 10° 318° (NW) 1,102 7.9 -13.7°
Maximum altitude 21:00:59 85° 228° (SW) 287 3.9 -14.1°
Enters shadow 21:01:40 41° 144° (SE) 430 4.4 -14.2°
